[[{"header":{"parameterUnit":"m.s-1","parameterCategory":1,"la1":30.2991,"la2":30.254,"lo1":-89.0895,"lo2":-89.0444,"dy":0.0017,"dx":0.0017,"nx":28,"ny":28,"refTime":"2026-03-03T09:00:00:Z","depth":0,"parameterNumber":2,"parameterNumberName":"U-component_of_WINDS"},"data":[0,0,0,0,0,0,0,0,0,0,0,0,0,0,0,0,0,0,0,0,0,0,0,0,0,0,0,0,0,0,0,0,0,0,0,0,0,0,0,0,0,0,0,0,0,0,0,0,0,0,0,0,0,0,0,0,0,0,-2.8958,-2.8959,0,-2.9022,-2.9022,-2.9023,-2.9029,-2.9028,-2.9027,-2.9027,-2.909,-2.9092,-2.9094,0,0,0,0,0,0,0,0,0,0,0,0,0,-2.8842,-2.8844,-2.8958,-2.8959,-2.896,-2.9021,-2.9022,-2.9023,-2.9029,-2.9028,-2.9027,-2.9027,-2.9089,-2.9092,-2.9094,0,0,0,0,0,0,0,0,0,0,0,0,0,-2.8898,-2.8845,-2.8958,-2.897,-2.8972,-2.9021,-2.9022,-2.9023,-2.9029,-2.9028,-2.9027,-2.9026,-2.9088,-2.9091,-2.9095,-2.9136,0,0,-2.9105,-2.9107,0,0,0,0,0,0,0,0,-2.8894,-2.8902,-2.8968,-2.8969,-2.8971,-2.9016,-2.9004,-2.9061,-2.9029,-2.9007,-2.9027,-2.9026,-2.9066,-2.9071,-2.9085,-2.9139,-2.9141,-2.9105,-2.9108,-2.9109,-2.911,0,0,0,0,0,0,0,-2.8891,-2.8899,-2.8983,-2.8969,-2.8971,-2.8972,-2.8979,-2.9015,-2.9041,-2.9009,-2.901,-2.9017,-2.9067,-2.9082,-2.9087,-2.9142,-2.9105,-2.9108,-2.9111,-2.9112,-2.9234,-2.9235,0,0,0,0,0,0,-2.8885,-2.8896,-2.8981,-2.8985,-2.893,-2.8975,-2.8983,-2.9003,-2.9041,-2.9046,-2.9018,-2.9017,-2.9076,-2.9083,-2.9089,-2.914,-2.9109,-2.9112,-2.9114,-2.9233,-2.9234,-2.9236,0,0,0,0,0,0,-2.8882,-2.8892,-2.8979,-2.8941,-2.8952,-2.8978,-2.9001,-2.9005,-2.902,-2.9048,-2.9052,-2.9029,-2.9076,-2.9084,-2.9124,-2.9142,-2.9114,-2.9117,-2.9232,-2.9233,-2.9235,-2.9241,0,0,0,0,0,0,-2.8879,-2.8891,-2.8907,-2.8941,-2.8954,-2.9013,-2.9002,-2.9007,-2.9026,-2.9025,-2.9059,-2.9063,-2.9076,-2.9119,-2.9128,-2.9146,-2.912,-2.923,-2.9232,-2.9234,-2.924,-2.9243,-2.9246,0,0,0,0,0,-2.8875,-2.8905,-2.8908,-2.8918,-2.8974,-2.9014,-2.9021,-2.9036,-2.9027,-2.9043,-2.9062,-2.9062,-2.9139,-2.9123,-2.9133,-2.9153,-2.9229,-2.9232,-2.9234,-2.9238,-2.9242,-2.9246,0,0,0,0,0,0,-2.8871,-2.891,-2.8913,-2.8956,-2.8982,-2.9015,-2.9035,-2.9039,-2.9068,-2.9066,-2.9082,-2.909,-2.913,-2.9145,-2.9127,-2.9195,-2.9183,-2.9188,-2.9183,-2.9187,-2.919,-2.9185,-2.9122,0,0,0,0,0,-2.8876,-2.8906,-2.8938,-2.8973,-2.8986,-2.9009,-2.9026,-2.9036,-2.9063,-2.9073,-2.9095,-2.9121,-2.9151,-2.917,-2.9199,-2.9243,-2.925,-2.9261,-2.9265,-2.9267,-2.927,-2.9295,-2.93,-2.9244,-2.9244,-2.9244,0,0,-2.8885,-2.891,-2.8927,-2.8973,-2.8994,-2.9024,-2.9018,-2.9049,-2.9072,-2.9078,-2.9117,-2.9135,-2.9165,-2.9207,-2.9227,-2.9221,-2.9288,-2.927,-2.9272,-2.9274,-2.9298,-2.9304,-2.9308,-2.9246,-2.9246,-2.9246,0,0,-2.8917,-2.8939,-2.8971,-2.8993,-2.9025,-2.9041,-2.9049,-2.9082,-2.9094,-2.9134,-2.9139,-2.9167,-2.9218,-2.924,-2.9257,-2.9301,-2.9302,-2.931,-2.9326,-2.935,-2.9354,-2.9358,-2.9373,-2.9378,-2.9313,-2.9313,-2.9313,0,-2.8923,-2.897,-2.8986,-2.9019,-2.9038,-2.9047,-2.9079,-2.91,-2.914,-2.9153,-2.9148,-2.9213,-2.9234,-2.9282,-2.9293,-2.9307,-2.9317,-2.9305,-2.9352,-2.9357,-2.936,-2.9375,-2.9381,-2.9314,-2.9314,-2.9314,-2.9314,0,-2.8976,-2.9008,-2.903,-2.907,-2.9093,-2.9125,-2.9146,-2.9167,-2.9175,-2.9191,-2.9233,-2.9259,-2.9294,-2.9307,-2.9314,-2.9356,-2.9352,-2.9349,-2.9337,-2.9366,-2.938,-2.9386,-2.9315,-2.9315,-2.9315,-2.9314,0,0,-2.9005,-2.9056,-2.9063,-2.9082,-2.912,-2.9145,-2.9178,-2.9214,-2.9231,-2.926,-2.9288,-2.9332,-2.9331,-2.9351,-2.9361,-2.9383,-2.9415,-2.9377,-2.9378,-2.9383,-2.9463,-2.9464,-2.947,-2.9418,-2.9419,-2.942,-2.946,0,-2.9041,-2.91,-2.9117,-2.9167,-2.9197,-2.9207,-2.9236,-2.9263,-2.9279,-2.9307,-2.9326,-2.9357,-2.9353,-2.9365,-2.9387,-2.9406,-2.9431,-2.9404,-2.9443,-2.9444,-2.9434,-2.9478,-2.9478,-2.9515,-2.9466,-2.9467,-2.9468,0,-2.9089,-2.912,-2.9173,-2.9208,-2.9222,-2.9247,-2.9282,-2.9309,-2.9339,-2.935,-2.9374,-2.9383,-2.9418,-2.9407,-2.9455,-2.9436,-2.9454,-2.9467,-2.9468,-2.9471,-2.9456,-2.948,-2.9527,-2.9532,-2.9476,-2.9476,-2.9475,0,-2.9104,-2.9159,-2.9198,-2.9213,-2.9256,-2.9274,-2.9292,-2.9322,-2.9343,-2.9374,-2.9387,-2.9421,-2.9439,-2.9466,-2.9484,-2.9474,-2.9532,-2.9521,-2.9541,-2.9541,-2.9551,-2.955,-2.96,-2.9565,-2.9565,-2.9565,-2.9564,0,-2.9141,-2.9173,-2.9205,-2.9229,-2.9265,-2.9285,-2.9321,-2.934,-2.9367,-2.9395,-2.9406,-2.9432,-2.9455,-2.9484,-2.9499,-2.9538,-2.9546,-2.9555,-2.9559,-2.9554,-2.9552,-2.9564,-2.9561,-2.9566,-2.9566,-2.9565,-2.9565,0,-2.9163,-2.9186,-2.9229,-2.9267,-2.9277,-2.9302,-2.9334,-2.9358,-2.9376,-2.9411,-2.9421,-2.9449,-2.9485,-2.9506,-2.955,-2.956,-2.9603,-2.9605,-2.9592,-2.9593,-2.9612,-2.961,-2.967,-2.9679,-2.9639,-2.9639,-2.964,0,-2.9184,-2.9209,-2.925,-2.927,-2.9289,-2.9321,-2.9342,-2.9364,-2.9386,-2.9424,-2.9443,-2.948,-2.9509,-2.9565,-2.959,-2.9624,-2.9627,-2.9646,-2.9632,-2.9627,-2.9627,-2.9624,-2.9627,-2.9648,-2.9648,-2.9649,-2.9649,0,-2.9219,-2.923,-2.9261,-2.9296,-2.9322,-2.9351,-2.938,-2.9395,-2.9422,-2.9446,-2.9483,-2.9506,-2.9553,-2.9588,-2.9625,-2.9644,-2.9651,-2.9654,-2.966,-2.9654,-2.9645,-2.965,-2.9597,-2.9651,-2.9651,-2.9651,-2.9651,-2.9651,-2.9241,-2.9264,-2.9296,-2.9331,-2.9355,-2.9383,-2.9407,-2.9429,-2.946,-2.95,-2.9511,-2.9549,-2.9581,-2.9632,-2.9652,-2.9683,-2.968,-2.9689,-2.9691,-2.9693,-2.9693,-2.9642,-2.969,-2.969,-2.9689,-2.9689,-2.9689,0,-2.9276,-2.9298,-2.933,-2.937,-2.9398,-2.9403,-2.9436,-2.9458,-2.9492,-2.9522,-2.9552,-2.9594,-2.963,-2.9658,-2.9695,-2.9714,-2.9718,-2.9722,-2.972,-2.9725,-2.9693,-2.9684,-2.9719,-2.9719,-2.9719,-2.9718,-2.9718,-2.9718,-2.9297,-2.9336,-2.9351,-2.9403,-2.9425,-2.9463,-2.9482,-2.9507,-2.9531,-2.9578,-2.9608,-2.9627,-2.9656,-2.9695,-2.9728,-2.9736,-2.9748,-2.9752,-2.976,-2.973,-2.9727,-2.9724,-2.9715,-2.9755,-2.9755,-2.9789,-2.9789,-2.9789]},{"header":{"parameterUnit":"m.s-1","parameterCategory":1,"la1":30.2991,"la2":30.254,"lo1":-89.0895,"lo2":-89.0444,"dy":0.0017,"dx":0.0017,"nx":28,"ny":28,"refTime":"2026-03-03T09:00:00:Z","depth":0,"parameterNumber":3,"parameterNumberName":"V-component_of_WINDS"},"data":[0,0,0,0,0,0,0,0,0,0,0,0,0,0,0,0,0,0,0,0,0,0,0,0,0,0,0,0,0,0,0,0,0,0,0,0,0,0,0,0,0,0,0,0,0,0,0,0,0,0,0,0,0,0,0,0,0,0,2.4386,2.4386,0,2.4431,2.4432,2.4432,2.4461,2.4462,2.4462,2.4462,2.4506,2.4506,2.4507,0,0,0,0,0,0,0,0,0,0,0,0,0,2.4323,2.4324,2.4386,2.4386,2.4387,2.4431,2.4432,2.4432,2.4461,2.4462,2.4462,2.4462,2.4505,2.4506,2.4508,0,0,0,0,0,0,0,0,0,0,0,0,0,2.4357,2.4324,2.4385,2.4407,2.4409,2.4431,2.4432,2.4432,2.4461,2.4462,2.4462,2.4462,2.4505,2.4506,2.4508,2.4511,0,0,2.4512,2.4513,0,0,0,0,0,0,0,0,2.4355,2.436,2.4403,2.4405,2.4408,2.4441,2.4426,2.4459,2.4461,2.4441,2.4462,2.4462,2.4484,2.4487,2.4495,2.4513,2.4515,2.4512,2.4513,2.4514,2.4514,0,0,0,0,0,0,0,2.4353,2.4358,2.4404,2.4404,2.4407,2.4414,2.4419,2.4432,2.446,2.4443,2.4445,2.4451,2.4485,2.4493,2.4496,2.4516,2.4512,2.4514,2.4515,2.4515,2.4542,2.4542,0,0,0,0,0,0,2.4347,2.4356,2.4402,2.4405,2.4382,2.4414,2.442,2.443,2.446,2.4465,2.445,2.4452,2.4491,2.4494,2.4498,2.4505,2.4514,2.4515,2.4516,2.4542,2.4542,2.4542,0,0,0,0,0,0,2.4346,2.4351,2.44,2.4381,2.4388,2.4415,2.4426,2.4431,2.4439,2.4466,2.4471,2.4453,2.4491,2.4495,2.4508,2.4507,2.4516,2.4517,2.4543,2.4542,2.4542,2.452,0,0,0,0,0,0,2.4344,2.4351,2.4352,2.4381,2.4389,2.4411,2.4426,2.4431,2.4442,2.4444,2.447,2.4475,2.4491,2.4506,2.451,2.4509,2.4518,2.4543,2.4543,2.4542,2.4521,2.4519,2.4517,0,0,0,0,0,2.4342,2.4343,2.4352,2.4358,2.4391,2.441,2.4415,2.4435,2.4442,2.4444,2.4461,2.4474,2.4507,2.4507,2.4512,2.4512,2.4543,2.4543,2.4542,2.4522,2.4519,2.4517,0,0,0,0,0,0,2.4312,2.4347,2.4357,2.4368,2.4386,2.4415,2.4418,2.4432,2.4447,2.4449,2.4473,2.4478,2.4489,2.4502,2.4501,2.4518,2.4526,2.4527,2.4509,2.4507,2.4506,2.4502,2.452,0,0,0,0,0,2.4307,2.432,2.4349,2.4356,2.4365,2.439,2.4399,2.4414,2.4433,2.444,2.4458,2.4476,2.4491,2.45,2.4514,2.4523,2.453,2.4525,2.4524,2.4522,2.4522,2.453,2.4528,2.4541,2.4541,2.4541,0,0,2.4295,2.4316,2.4323,2.4351,2.4366,2.4379,2.4396,2.4408,2.4419,2.4442,2.4456,2.447,2.4491,2.4503,2.4509,2.4514,2.4521,2.4522,2.452,2.4521,2.4529,2.4528,2.4527,2.4541,2.4541,2.4541,0,0,2.4282,2.4299,2.4308,2.4324,2.4348,2.4365,2.4368,2.4395,2.4406,2.4421,2.4439,2.4451,2.4476,2.4491,2.4502,2.4498,2.451,2.4502,2.4492,2.4499,2.4498,2.4497,2.4497,2.4496,2.4502,2.4502,2.4501,0,2.4265,2.4286,2.431,2.4322,2.4334,2.4358,2.4367,2.4381,2.4409,2.4416,2.4422,2.4455,2.447,2.4487,2.4486,2.4494,2.4497,2.4498,2.4496,2.4496,2.4496,2.4495,2.4495,2.45,2.4501,2.4501,2.4501,0,2.4265,2.4279,2.4283,2.4311,2.4324,2.4334,2.436,2.4369,2.4384,2.44,2.4416,2.4436,2.4457,2.4462,2.4474,2.448,2.4483,2.4492,2.4501,2.4493,2.4493,2.4493,2.4499,2.4499,2.45,2.45,0,0,2.4232,2.4276,2.4276,2.4291,2.4321,2.4332,2.4344,2.4366,2.4375,2.4393,2.4404,2.4426,2.4435,2.4448,2.4463,2.4469,2.4466,2.4478,2.4478,2.4475,2.4475,2.4469,2.4468,2.4475,2.4475,2.4475,2.4474,0,2.4224,2.4248,2.4271,2.4287,2.4302,2.4325,2.4336,2.4356,2.4372,2.4387,2.4405,2.442,2.4431,2.4439,2.4446,2.4465,2.4466,2.4465,2.4486,2.4486,2.448,2.4468,2.4461,2.4459,2.4474,2.4474,2.4474,0,2.4217,2.4238,2.4255,2.4287,2.4293,2.4303,2.4326,2.4339,2.4362,2.4374,2.4389,2.4406,2.442,2.4428,2.4449,2.4448,2.4458,2.4468,2.4469,2.4471,2.448,2.4471,2.4458,2.4458,2.4474,2.4474,2.4474,0,2.4193,2.4225,2.424,2.4251,2.4287,2.4294,2.4309,2.4333,2.4345,2.4365,2.4373,2.4394,2.4405,2.442,2.4442,2.4446,2.4461,2.447,2.4471,2.4471,2.4473,2.4473,2.4462,2.4479,2.4479,2.4479,2.4479,0,2.4182,2.4192,2.423,2.424,2.4252,2.4279,2.429,2.4308,2.4329,2.4342,2.4364,2.4375,2.4404,2.4419,2.4436,2.4451,2.4456,2.4466,2.447,2.4464,2.4463,2.4471,2.4472,2.4479,2.4479,2.4479,2.4479,0,2.4157,2.4183,2.4202,2.4235,2.4244,2.4252,2.4281,2.4291,2.431,2.4327,2.4332,2.4361,2.4381,2.4404,2.443,2.4442,2.4456,2.4462,2.4448,2.4451,2.4451,2.4451,2.4446,2.4447,2.4462,2.4461,2.4461,0,2.4148,2.4157,2.4193,2.4205,2.422,2.4237,2.4251,2.4278,2.4291,2.4319,2.4326,2.4348,2.4366,2.4396,2.4419,2.444,2.4447,2.4444,2.445,2.4445,2.4448,2.4448,2.4449,2.4442,2.4442,2.4442,2.4442,0,2.4131,2.4144,2.4163,2.4188,2.4204,2.4223,2.4244,2.4252,2.4283,2.4297,2.4318,2.4333,2.4361,2.4382,2.4407,2.4422,2.4437,2.444,2.4441,2.4435,2.4427,2.4433,2.4445,2.4439,2.444,2.444,2.444,2.444,2.4115,2.4124,2.4152,2.4173,2.4192,2.4212,2.4224,2.4246,2.4264,2.429,2.4305,2.4326,2.4351,2.4385,2.44,2.4417,2.4422,2.4424,2.4425,2.4425,2.4424,2.4425,2.4421,2.4421,2.4422,2.4422,2.4422,0,2.4099,2.4119,2.4138,2.4168,2.4185,2.42,2.4224,2.4237,2.4256,2.4278,2.4297,2.4322,2.4344,2.437,2.4393,2.4401,2.4409,2.4406,2.4406,2.441,2.4417,2.4414,2.44,2.44,2.44,2.44,2.44,2.44,2.4093,2.4111,2.4128,2.4156,2.4176,2.4198,2.4211,2.4229,2.4248,2.4275,2.4294,2.4311,2.4335,2.4361,2.4381,2.4388,2.4396,2.4392,2.4401,2.4407,2.4409,2.4411,2.4408,2.4393,2.4393,2.4392,2.4392,2.4392]}]]